This is the latest recevied weather packets stored in our database for station/object R2AKT-13. If no packets are shown the sender has not sent any weather packets the latest 10 day(s).
| Time | Temp. | Humidity | Pressure | Rain* | Wind** | Luminosity | Snow |
|---|---|---|---|---|---|---|---|
| 1777781268 | 11.11° C | 60% | 989.8 hPa | - | 0.89 m/s, 226° | - | - |
| 1777780668 | 10.56° C | 60% | 990 hPa | - | 1.34 m/s, 186° | - | - |
| 1777780168 | 10.56° C | 61% | 990 hPa | - | 0.89 m/s, 202° | - | - |
| 1777779634 | 10° C | 62% | 990 hPa | - | 1.34 m/s, 213° | - | - |
| 1777779084 | 10.56° C | 61% | 990 hPa | - | 1.79 m/s, 192° | - | - |
| 1777778579 | 10° C | 62% | 989.9 hPa | - | 1.34 m/s, 199° | - | - |
| 1777778039 | 10° C | 63% | 989.9 hPa | - | 1.79 m/s, 181° | - | - |
| 1777777459 | 9.44° C | 63% | 990 hPa | - | 1.79 m/s, 200° | - | - |
| 1777776924 | 9.44° C | 63% | 990 hPa | - | 1.79 m/s, 191° | - | - |
| 1777776419 | 9.44° C | 63% | 989.9 hPa | - | 1.79 m/s, 197° | - | - |
| 1777775884 | 9.44° C | 63% | 990 hPa | - | 1.79 m/s, 179° | - | - |
| 1777775348 | 9.44° C | 63% | 990 hPa | - | 1.34 m/s, 193° | - | - |
| 1777774829 | 9.44° C | 62% | 990 hPa | - | 1.34 m/s, 180° | - | - |
| 1777774304 | 9.44° C | 63% | 990 hPa | - | 1.79 m/s, 190° | - | - |
| 1777772734 | 9.44° C | 62% | 990.1 hPa | - | 1.79 m/s, 176° | - | - |
| 1777772204 | 9.44° C | 61% | 990 hPa | - | 1.79 m/s, 186° | - | - |
| 1777768864 | 10° C | 58% | 990.5 hPa | - | 1.79 m/s, 182° | - | - |
| 1777768279 | 10° C | 58% | 990.5 hPa | - | 1.34 m/s, 184° | - | - |
| 1777766099 | 10.56° C | 56% | 990.6 hPa | - | 1.79 m/s, 184° | - | - |
| 1777765074 | 10.56° C | 55% | 990.7 hPa | - | 1.34 m/s, 181° | - | - |
| 1777764539 | 11.11° C | 54% | 990.8 hPa | - | 1.79 m/s, 189° | - | - |
| 1777761214 | 11.11° C | 52% | 991.1 hPa | - | 1.34 m/s, 192° | - | - |
| 1777760679 | 11.67° C | 52% | 991.2 hPa | - | 1.34 m/s, 186° | - | - |
| 1777760128 | 11.67° C | 51% | 991.2 hPa | - | 1.79 m/s, 186° | - | - |
| 1777759528 | 11.67° C | 51% | 991.3 hPa | - | 1.34 m/s, 196° | - | - |
* Rain since midnight (hover to see other rain measurements)
** Current wind speed in m/s (hover to see current wind gust speed)